Home > Weather > Gaziantep > Past weeks

Flag for Turkey Past Weather in Gaziantep, Turkey — Yesterday and Last 2 Weeks

Now
97 °F

Sunny.


Feels Like: 92 °F
Forecast: 70 / 98 °F
Wind: 6 mph from Northwest

Location: Gaziantep Airport

Current Time: Jul 26, 2016 at 1:30:23 PM

Latest Report: Jul 26, 2016 at 12:50 PM


Visibility: 10 mi

Pressure: 29.77 "Hg (27.08 "Hg at 856m altitude)

Humidity: 11%

Dew Point: 34 °F

Location of GaziantepLocation

Past Weather in Gaziantep — Graph

°F

Gaziantep Temperature Yesterday

Maximum temperature yesterday: 100 °F (at 4:20 PM)
Minimum temperature yesterday: 77 °F (at 2:20 AM)
Average temperature yesterday: 88 °F

High & Low Weather Summary for the Past Weeks

 TemperatureHumidityPressure
High106 °F (Jul 16, 12:20 PM)74% (Jul 19, 4:20 AM)29.92 "Hg (Jul 19, 4:20 AM)
Low68 °F (Jul 12, 5:20 AM)4% (Jul 24, 2:20 PM)29.62 "Hg (Jul 14, 6:50 AM)
Average88 °F31%29.78 "Hg
* Reported Jul 11 11:20 AM — Jul 26 11:50 AM, Gaziantep, Weather by CustomWeather, © 2016

Note: Actual official high and low records may vary slightly from our data, if they occured in-between our weather recording intervals... More about our weather records

Advertising

Gaziantep Weather History for the Previous 24 Hours

Scroll right to see more
 ConditionsComfort  
Time TempWeatherWind HumidityBarometerVisibility
11:50 AM
Tue, Jul 26
97 °FSunny.5 mph11%29.77 "Hg10 mi
11:20 AM95 °FSunny.5 mph11%29.77 "Hg10 mi
10:50 AM93 °FSunny.5 mph13%29.80 "Hg10 mi
10:20 AM91 °FSunny.7 mph16%29.80 "Hg10 mi
9:50 AM91 °FSunny.6 mph16%29.80 "Hg10 mi
9:20 AM90 °FSunny.6 mph17%29.80 "Hg10 mi
8:50 AM88 °FSunny.7 mph19%29.80 "Hg10 mi
8:20 AM88 °FSunny.7 mph19%29.80 "Hg10 mi
7:50 AM86 °FSunny.5 mph22%29.77 "Hg10 mi
7:20 AM86 °FSunny.3 mph24%29.77 "Hg10 mi
6:50 AM82 °FSunny.3 mph26%29.77 "Hg10 mi
6:20 AM79 °FClear.2 mph32%29.77 "Hg10 mi
5:50 AM79 °FClear.3 mph32%29.77 "Hg10 mi
5:20 AM79 °FClear.5 mph32%29.77 "Hg10 mi
4:50 AM79 °FClear.2 mph32%29.77 "Hg10 mi
4:20 AM81 °FClear.3 mph32%29.74 "Hg10 mi
3:50 AM79 °FClear.3 mph37%29.74 "Hg10 mi
3:20 AM79 °FClear.3 mph37%29.74 "Hg10 mi
2:50 AM81 °FClear.3 mph39%29.74 "Hg10 mi
2:20 AM81 °FClear.3 mph39%29.74 "Hg10 mi
1:50 AM82 °FClear.6 mph37%29.74 "Hg10 mi
1:20 AM82 °FClear.6 mph37%29.74 "Hg10 mi
12:50 AM82 °FClear.6 mph37%29.74 "Hg10 mi
12:20 AM84 °FClear.8 mph33%29.74 "Hg10 mi
11:50 PM
Mon, Jul 25
84 °FClear.8 mph33%29.74 "Hg10 mi
11:20 PM84 °FClear.8 mph31%29.74 "Hg10 mi
10:50 PM86 °FClear.6 mph27%29.74 "Hg10 mi
10:20 PM86 °FClear.5 mph25%29.74 "Hg10 mi
9:50 PM88 °FClear.7 mph24%29.74 "Hg10 mi
9:20 PM88 °FClear.6 mph21%29.74 "Hg10 mi
8:50 PM90 °FClear.6 mph18%29.74 "Hg10 mi
8:20 PM90 °FSunny.5 mph11%29.71 "Hg10 mi
7:50 PM91 °FSunny.5 mph8%29.71 "Hg10 mi
7:20 PM95 °FSunny.7 mph6%29.71 "Hg10 mi
6:50 PM97 °FSunny.7 mph6%29.71 "Hg10 mi
6:20 PM99 °FSunny.7 mph6%29.68 "Hg10 mi
5:50 PM99 °FSunny.6 mph6%29.68 "Hg10 mi
5:20 PM100 °FSunny.2 mph5%29.68 "Hg10 mi
4:50 PM99 °FSunny.8 mph5%29.68 "Hg10 mi
4:20 PM100 °FSunny.6 mph4%29.71 "Hg10 mi
3:50 PM99 °FSunny.5 mph5%29.71 "Hg10 mi
3:20 PM99 °FSunny.5 mph4%29.71 "Hg10 mi
2:50 PM99 °FSunny.7 mph4%29.71 "Hg10 mi
2:20 PM97 °FSunny.5 mph5%29.71 "Hg10 mi
1:50 PM97 °FSunny.5 mph7%29.71 "Hg10 mi
1:20 PM97 °FSunny.5 mph7%29.71 "Hg10 mi
Weather by CustomWeather, © 2016

See weather overviewHow to use our weather pages